Location: Allen Fire Department Station 4
(33.1073°N, 96.6988°W)
Time: 11:35:51
(UTC+00:00)

Cosmos 1777 Rocket - Pass Details

Date: 03 December 2021
Orbit: 757 x 776 km, 74.0° (Epoch: 24 January)

Event Time Altitude Azimuth Distance (km) Brightness Sun altitude
Rises 12:26:29 0° 198° (SSW) 3,198 7.2 -10.0°
Reaches altitude 10° 12:28:50 10° 200° (SSW) 2,278 6.5 -9.5°
Maximum altitude 12:34:00 79° 286° (WNW) 777 3.9 -8.5°
Drops below altitude 10° 12:39:14 10° 14° (NNE) 2,301 6.4 -7.5°
Sets 12:41:37 0° 16° (NNE) 3,233 7.2 -7.0°
